Temperature
23 24 24 24 25 24 22 20 19 19 18 18 18 18 19 19 18 18 17 17 16 15 15 14 13 13 12 12 12 11 11 10 10 9 9 9 9 8 8 8 8 8 8 8
22 24 24 24 24 24 23 22 20 19 19 19 19 19 18 18 18 17 17 16 16 15 14 14 13 13 12 12 11 11 10 10 9 9 9 9 8 8 8 8 8 8 8 8
20 22 23 22 23 23 23 22 21 19 19 19 17 17 17 18 18 17 16 16 15 14 14 13 13 12 12 11 11 10 10 9 9 9 8 8 8 8 8 8 8 8 8 8
19 20 22 21 23 23 21 20 20 19 19 18 18 18 18 18 18 17 16 16 15 14 14 13 12 12 11 11 10 10 10 9 9 8 8 8 8 8 8 8 8 8 8 8
18 20 21 22 23 22 20 20 20 19 19 19 18 17 17 18 17 17 16 15 15 14 13 13 12 12 11 11 10 10 9 9 8 8 8 8 8 8 8 8 8 8 8 8
19 20 20 21 23 23 20 19 20 20 19 19 18 15 15 17 17 17 16 15 14 14 13 12 12 11 11 10 10 9 9 9 8 8 8 8 8 8 8 8 8 8 8 8
19 19 20 22 24 23 21 19 21 21 21 20 18 17 19 18 17 17 16 15 14 14 13 12 12 11 11 10 9 9 9 8 8 8 8 8 8 8 8 8 8 8 7 7
18 19 20 22 23 21 20 22 22 22 21 21 20 19 18 18 17 17 16 15 14 13 13 12 11 11 10 10 9 9 9 8 8 8 8 8 8 8 8 8 8 7 7 7
18 19 21 24 24 24 24 23 22 22 21 21 20 19 19 18 17 16 16 15 14 13 12 12 11 11 10 10 9 9 9 8 8 8 8 8 8 8 8 8 8 7 7 7
20 20 22 24 25 24 24 23 23 22 21 21 20 19 19 18 17 16 15 15 14 13 12 12 11 10 10 9 9 9 8 8 8 8 8 8 8 8 8 8 8 7 7 7
20 21 23 24 24 24 24 23 22 22 21 21 20 19 19 18 17 16 15 14 14 13 12 11 11 10 10 9 9 9 9 8 8 8 8 8 8 8 8 8 8 7 7 7
20 21 20 23 24 24 23 23 22 22 21 21 20 20 19 18 17 16 15 14 13 13 12 11 11 10 10 9 9 9 9 9 8 8 8 8 8 9 9 8 8 8 7 7
25 25 25 24 24 24 24 23 23 22 22 21 20 20 19 18 17 16 15 14 14 13 12 11 11 10 10 9 9 9 9 9 9 8 9 9 9 8 9 9 8 8 7 7
25 25 24 24 24 24 23 23 23 22 22 21 20 19 19 18 17 16 15 14 14 13 12 11 11 10 10 10 9 9 9 9 9 9 9 9 9 9 8 8 8 8 8 7
24 24 24 24 24 23 23 23 22 22 21 20 20 19 18 18 17 16 15 14 14 13 12 11 11 11 10 10 9 9 9 9 9 9 9 9 9 9 9 8 8 8 8 8
23 23 23 22 22 22 22 22 21 21 21 20 19 19 18 17 17 16 15 15 14 13 12 12 11 11 10 10 10 10 9 9 9 9 9 9 9 9 9 9 8 8 8 8
20 19 20 20 20 21 21 21 21 21 20 20 19 18 18 17 16 16 15 15 14 13 12 12 11 11 10 10 10 10 9 10 9 10 10 9 9 9 9 9 9 9 8 8
18 18 18 18 19 19 19 20 20 20 19 19 19 18 17 17 17 16 15 14 14 13 12 12 11 11 10 10 10 10 10 10 10 10 10 10 10 10 9 9 9 9 9 9
16 16 17 17 17 18 18 18 18 18 18 18 18 17 17 17 16 16 15 14 14 13 13 12 11 11 11 10 10 10 10 10 10 10 10 10 10 10 10 9 9 9 9 9
15 16 16 16 16 17 17 17 17 17 17 17 17 17 17 16 16 16 15 14 14 13 13 12 12 11 11 10 10 10 10 10 10 10 10 10 10 10 10 10 10 10 9 9
14 15 15 15 15 15 15 15 16 16 16 16 16 16 16 16 16 15 15 14 14 13 13 12 12 11 11 10 10 10 10 10 10 10 10 10 10 10 10 10 10 10 10 10
13 13 14 14 14 14 14 14 14 15 15 15 15 15 15 15 15 15 14 14 14 13 12 12 11 11 11 10 10 10 9 9 10 10 10 10 10 10 10 10 10 10 10 10
13 13 13 13 13 13 13 13 13 13 13 14 14 14 14 14 14 14 14 14 13 12 12 12 11 11 10 10 10 9 9 9 9 10 10 10 10 10 10 10 10 10 10 10
12 12 12 12 12 12 12 13 13 13 13 13 13 13 13 13 13 13 13 13 12 12 11 11 11 10 10 10 9 9 9 9 9 9 10 10 10 10 10 10 10 10 10 10
12 12 12 12 12 12 12 12 12 12 12 12 12 12 12 13 13 13 13 12 12 11 11 11 10 10 10 9 9 9 9 9 9 9 10 10 10 10 11 11 11 11 11 10
11 11 11 11 11 11 11 11 11 11 11 11 11 11 11 12 12 12 12 11 11 10 10 10 10 9 9 9 8 8 8 9 9 9 9 10 10 10 10 10 11 11 11 11
11 11 11 11 11 11 10 10 10 10 10 10 10 10 11 11 11 11 11 10 10 10 10 9 9 9 9 9 8 8 8 8 8 9 9 9 9 10 10 10 10 11 11 11
Wind_Speed
4 5 3 3 1 3 6 8 7 8 9 9 8 8 7 6 6 6 4 3 2 2 3 4 5 5 5 5 6 5 6 6 7 7 7 7 8 8 8 8 9 8 8 9
6 7 6 3 3 4 6 7 9 9 6 5 4 4 4 6 6 5 3 3 2 3 3 4 5 5 4 5 6 5 6 7 7 7 7 8 8 8 8 9 9 9 9 9
4 7 5 3 1 4 5 5 9 7 7 5 5 6 7 7 6 5 4 4 3 4 5 5 4 4 4 5 6 6 7 7 7 7 8 8 9 9 9 9 9 10 10 9
0 6 2 6 1 10 10 6 7 8 7 8 8 7 7 7 7 6 5 4 4 4 4 4 3 4 4 5 6 6 7 7 8 8 9 9 9 9 10 9 9 10 10 10
3 1 4 5 1 6 8 4 4 8 7 6 6 4 1 4 7 7 5 4 4 4 3 3 4 4 4 6 6 7 7 8 8 9 10 10 10 11 10 9 10 10 9 10
4 3 5 7 4 6 9 2 4 8 7 7 6 2 4 5 6 5 4 3 3 3 2 3 5 4 4 6 7 7 8 9 9 9 10 11 11 11 9 9 10 9 10 9
5 5 6 7 4 5 3 8 8 8 8 8 7 7 6 6 6 5 3 2 2 1 2 4 5 3 5 6 7 8 8 9 10 9 10 10 9 8 9 9 9 8 9 9
4 3 7 7 4 6 9 7 9 9 9 9 8 7 7 7 6 4 2 2 1 1 4 5 4 3 5 7 7 7 8 9 10 10 10 10 9 9 9 8 8 8 7 7
7 8 9 7 9 9 9 9 9 9 9 10 9 7 7 6 6 4 3 3 2 2 4 5 5 4 5 6 6 7 8 9 10 11 9 9 9 9 8 7 6 6 6 6
3 7 7 7 5 7 9 9 10 10 10 10 9 9 8 6 5 4 3 3 2 2 4 5 6 5 5 6 6 7 8 9 9 10 10 10 8 7 6 6 6 6 5 6
3 6 2 2 5 8 8 8 9 8 9 11 11 9 8 7 6 5 4 3 3 3 4 6 6 5 5 5 5 7 8 9 9 9 9 9 9 7 7 6 6 6 5 4
6 8 6 6 7 8 9 9 11 10 9 9 10 10 9 7 6 5 4 3 3 4 5 6 5 5 5 5 5 7 8 8 8 8 8 8 9 9 9 8 9 9 8 6
8 7 7 6 6 7 9 11 11 11 11 10 9 10 9 7 6 5 4 4 4 4 5 5 5 5 6 5 6 7 8 9 8 8 8 8 8 7 8 7 7 7 7 8
4 4 2 3 5 7 8 9 10 9 10 11 10 9 8 7 6 6 5 5 4 3 4 4 5 6 6 5 6 8 8 9 9 8 8 8 8 7 6 6 6 5 5 7
3 4 5 4 3 3 3 5 6 7 8 8 8 9 9 8 7 6 5 4 3 3 4 4 5 6 6 6 7 8 8 7 8 8 8 7 7 6 5 5 5 5 4 3
3 4 4 4 2 1 2 4 6 8 9 9 9 9 9 9 7 6 6 5 4 4 5 5 5 5 6 6 7 7 7 12 11 8 8 7 6 6 5 5 5 5 4 3
12 9 7 7 6 4 2 1 4 6 7 9 10 9 9 8 6 6 6 6 6 5 5 4 5 5 6 6 6 6 7 9 12 9 7 6 6 6 5 5 5 5 4 4
12 11 10 8 8 8 7 5 3 2 4 6 8 8 8 8 8 8 8 6 4 3 4 5 4 4 5 5 4 5 6 7 7 7 7 6 6 6 5 5 5 5 4 4
17 16 15 14 12 10 9 8 6 3 1 4 6 7 8 8 8 8 7 6 5 5 6 5 5 3 4 5 5 5 6 7 7 7 6 8 7 6 5 5 5 5 4 4
15 15 15 15 14 11 9 8 6 5 3 3 5 6 6 7 8 7 7 6 6 6 6 5 3 2 3 4 6 5 6 7 7 7 6 6 6 6 6 5 5 5 4 3
13 13 13 13 12 12 11 10 8 7 7 6 6 8 9 9 8 7 6 6 6 6 5 5 3 2 2 4 6 5 5 6 6 6 6 6 6 6 6 6 5 5 4 3
10 10 11 11 11 11 11 10 10 10 9 9 9 8 8 8 8 7 7 7 6 7 5 3 3 3 3 4 4 4 5 5 5 5 5 5 5 5 5 6 6 5 4 3
8 8 9 10 10 11 11 11 11 10 9 9 9 8 8 8 6 5 6 5 5 7 5 4 5 4 2 2 3 3 4 5 5 5 5 5 5 5 4 5 5 5 4 3
8 9 9 9 9 8 9 10 10 8 8 8 7 7 6 4 4 4 3 6 8 8 5 6 7 4 2 1 2 2 3 4 5 5 5 5 5 5 4 4 5 4 4 4
9 8 8 8 7 7 8 8 8 8 8 7 8 8 6 3 3 3 3 5 8 7 4 6 8 4 1 0 0 1 2 3 5 5 5 5 6 5 5 4 5 5 5 4
8 7 7 6 5 5 5 5 5 6 7 7 7 7 6 5 2 1 3 5 6 6 4 3 3 2 2 1 1 1 2 4 5 5 6 5 6 6 6 6 7 6 5 5
7 5 5 5 5 5 5 5 5 6 6 6 7 6 5 4 2 1 3 3 4 3 3 3 2 2 3 3 3 3 3 4 4 5 5 5 6 6 6 7 6 6 6 6
Wind_Direction
263 281 300 305 286 144 136 158 154 173 169 196 195 187 187 169 147 133 141 149 165 213 251 267 276 280 277 276 284 289 292 289 283 280 281 283 285 283 281 278 279 268 266 265
330 324 342 354 47 84 103 118 130 136 165 202 172 141 130 136 135 140 157 173 201 242 263 276 279 277 281 283 285 287 288 286 284 286 290 290 288 284 283 280 276 272 267 265
303 318 9 337 206 110 99 129 146 154 176 164 149 152 159 160 159 166 180 202 237 260 262 269 264 261 273 277 285 296 293 291 293 293 293 290 293 295 286 282 277 274 270 264
258 14 336 262 181 111 95 70 109 126 153 169 174 181 187 182 170 176 192 217 250 262 268 263 253 264 275 289 300 301 299 299 298 297 295 292 290 288 285 281 279 276 274 269
133 204 277 294 229 137 118 89 137 137 150 156 153 112 277 210 180 184 198 214 233 245 243 246 266 277 296 306 307 305 302 301 298 298 299 298 295 291 287 285 285 280 276 272
155 176 233 243 229 138 102 130 202 152 151 151 132 96 257 222 188 186 194 212 232 254 255 278 279 283 302 304 305 302 299 298 297 296 297 296 294 290 287 284 282 284 282 277
191 215 251 237 201 113 130 220 203 168 163 160 169 199 212 191 188 185 186 207 217 274 283 277 277 284 297 299 294 291 296 301 301 299 297 293 290 289 291 291 290 289 289 288
162 180 246 236 162 169 202 189 175 170 170 168 180 182 170 172 177 176 184 240 262 279 289 284 280 284 295 293 287 295 302 305 304 302 303 307 299 297 297 295 296 297 297 300
183 210 228 209 194 197 164 168 178 173 176 163 161 169 172 176 179 193 206 245 257 256 289 294 286 278 285 286 294 304 308 307 306 306 303 299 296 297 303 301 297 298 300 301
233 260 240 218 191 172 170 173 176 170 168 160 163 171 171 175 188 204 228 247 255 272 294 295 289 283 272 281 294 305 308 308 307 307 307 306 299 291 292 293 295 298 299 302
280 276 278 215 186 177 176 167 164 165 168 166 162 168 170 177 191 205 220 239 242 256 272 280 287 286 283 283 299 307 308 307 308 304 302 305 301 290 282 270 257 267 277 279
234 236 200 221 210 174 166 176 175 169 173 172 166 168 165 176 190 195 210 226 245 263 271 280 288 287 287 286 297 305 309 310 307 306 306 305 305 306 288 271 270 260 249 252
214 219 196 204 188 173 174 183 182 176 175 176 172 164 162 173 185 190 202 221 238 251 265 277 286 288 289 290 299 301 300 303 304 303 304 306 306 305 310 308 284 268 264 257
208 155 151 187 201 198 190 188 182 178 176 171 165 160 159 164 175 188 204 218 226 245 270 276 284 289 289 294 302 302 302 304 304 299 301 302 300 298 297 302 310 306 275 252
200 166 185 201 183 185 181 164 161 173 174 167 161 161 163 165 182 200 203 199 208 259 279 282 286 288 292 301 304 303 304 303 303 302 302 300 299 301 301 303 300 297 295 281
65 53 56 69 75 92 117 140 168 186 182 175 170 171 171 172 180 188 191 189 203 253 268 268 269 276 292 303 305 305 304 308 314 307 305 307 309 310 309 306 305 300 291 277
56 39 27 24 22 20 31 175 190 185 174 173 175 171 166 166 175 192 206 211 214 231 238 232 247 275 295 300 301 302 305 312 317 316 308 307 309 309 307 303 300 301 293 274
58 50 43 40 37 26 13 11 19 134 162 169 164 164 172 182 194 206 214 219 226 249 234 226 237 274 296 301 302 301 304 305 308 308 308 310 310 311 313 308 304 302 296 293
42 39 32 29 28 28 20 15 12 9 132 157 169 186 199 205 204 206 205 205 222 246 242 234 250 275 295 303 317 303 305 307 310 311 309 311 316 319 321 318 314 311 303 294
34 30 25 19 16 13 7 2 359 348 310 243 209 209 218 223 214 208 202 213 223 219 214 214 226 250 285 303 321 303 303 305 308 314 315 318 322 324 327 326 325 320 316 309
22 16 11 5 359 354 346 340 334 316 300 278 249 236 234 234 222 206 200 227 235 211 205 208 191 210 271 303 313 303 305 310 313 316 317 320 325 329 333 337 337 331 328 329
4 357 348 343 339 332 325 320 313 306 301 292 277 265 255 248 235 223 219 218 208 193 190 186 186 221 276 312 305 308 313 317 322 324 324 328 330 331 335 341 341 337 342 346
336 329 324 320 316 310 311 313 310 307 303 299 291 281 266 254 237 219 237 225 183 183 182 193 203 222 288 317 308 316 325 332 334 333 329 326 325 327 337 340 339 338 351 360
321 315 312 310 316 323 319 315 317 317 313 312 308 301 295 288 277 247 221 179 174 175 183 201 213 227 262 287 306 325 336 340 336 331 332 332 335 345 354 351 350 352 2 9
309 308 311 318 323 317 310 318 330 335 337 337 333 329 322 300 255 231 177 169 171 172 182 203 217 223 194 188 300 347 355 353 349 345 346 346 349 356 2 358 359 4 7 9
300 300 299 301 300 303 315 332 339 337 339 339 336 332 331 329 310 167 160 170 171 178 183 191 203 190 146 117 75 48 34 13 4 3 0 359 0 3 4 5 11 20 18 11
304 312 318 328 328 329 334 337 337 333 335 334 325 320 318 317 311 194 160 162 171 173 163 159 149 130 120 108 87 62 45 29 13 7 6 7 9 6 4 7 11 17 19 23
Height
1498 1492 1489 1489 1488 1488 1494 1503 1514 1514 1514 1510 1506 1505 1505 1505 1505 1505 1505 1503 1502 1500 1497 1495 1492 1489 1486 1483 1479 1475 1472 1468 1464 1460 1456 1452 1448 1445 1442 1439 1436 1433 1431 1429
1499 1490 1489 1490 1487 1487 1490 1494 1502 1507 1510 1503 1503 1503 1504 1504 1503 1503 1502 1501 1499 1496 1494 1491 1488 1485 1482 1479 1475 1471 1467 1462 1458 1454 1450 1446 1442 1438 1435 1432 1429 1426 1424 1421
1510 1498 1494 1501 1490 1489 1492 1491 1497 1505 1505 1501 1503 1502 1502 1501 1501 1500 1499 1498 1495 1493 1490 1487 1484 1481 1478 1474 1471 1466 1462 1457 1453 1449 1444 1440 1436 1432 1429 1426 1423 1420 1417 1414
1511 1509 1513 1501 1483 1484 1492 1495 1493 1496 1498 1499 1499 1499 1499 1499 1498 1497 1496 1494 1492 1489 1486 1484 1481 1478 1474 1470 1466 1461 1457 1452 1448 1443 1439 1435 1431 1427 1423 1420 1416 1413 1410 1407
1513 1514 1508 1493 1485 1485 1492 1499 1494 1495 1496 1497 1497 1498 1498 1496 1495 1494 1492 1491 1488 1486 1483 1480 1477 1474 1470 1466 1461 1457 1452 1447 1443 1438 1434 1429 1425 1421 1418 1414 1410 1407 1403 1400
1508 1512 1514 1497 1481 1480 1488 1501 1492 1491 1492 1493 1495 1500 1497 1493 1492 1491 1489 1487 1485 1482 1480 1477 1473 1470 1466 1462 1457 1452 1448 1443 1438 1434 1429 1425 1420 1416 1413 1409 1405 1401 1397 1394
1505 1509 1500 1483 1477 1480 1498 1498 1488 1487 1488 1489 1490 1491 1490 1490 1489 1488 1486 1484 1482 1479 1476 1473 1470 1466 1462 1458 1453 1449 1444 1439 1434 1429 1425 1420 1416 1413 1409 1404 1400 1396 1392 1389
1504 1508 1501 1475 1476 1481 1483 1479 1481 1482 1483 1484 1485 1486 1487 1486 1486 1485 1483 1481 1479 1476 1473 1470 1466 1463 1458 1454 1450 1445 1440 1435 1430 1425 1421 1417 1413 1409 1405 1400 1396 1392 1388 1384
1490 1489 1473 1469 1470 1470 1472 1474 1476 1478 1479 1480 1482 1483 1483 1483 1482 1481 1480 1478 1475 1473 1470 1467 1463 1459 1455 1451 1446 1441 1436 1431 1426 1422 1418 1414 1410 1405 1401 1397 1393 1388 1384 1380
1477 1472 1466 1466 1466 1467 1468 1470 1472 1474 1475 1476 1477 1479 1479 1479 1479 1478 1477 1475 1472 1469 1466 1463 1459 1456 1452 1447 1443 1438 1432 1427 1423 1419 1415 1411 1407 1403 1398 1394 1390 1386 1382 1378
1475 1468 1465 1464 1464 1465 1467 1468 1469 1471 1472 1472 1473 1474 1475 1475 1475 1474 1473 1471 1469 1466 1463 1460 1456 1452 1449 1444 1440 1434 1429 1425 1421 1416 1412 1408 1404 1400 1396 1392 1388 1384 1380 1376
1473 1464 1463 1462 1462 1462 1463 1465 1466 1467 1468 1469 1469 1470 1471 1471 1471 1471 1469 1468 1465 1462 1459 1456 1453 1449 1446 1441 1437 1432 1426 1422 1418 1414 1410 1406 1401 1397 1394 1390 1386 1382 1378 1375
1460 1459 1459 1459 1459 1460 1460 1461 1462 1462 1463 1464 1464 1465 1466 1467 1467 1467 1466 1464 1462 1459 1456 1453 1449 1446 1442 1438 1434 1429 1424 1420 1416 1412 1408 1404 1399 1395 1391 1387 1384 1380 1376 1373
1457 1457 1457 1457 1457 1457 1457 1457 1458 1459 1459 1460 1461 1462 1462 1463 1463 1463 1462 1460 1458 1456 1453 1450 1446 1443 1439 1435 1431 1426 1422 1418 1414 1410 1406 1402 1398 1394 1389 1385 1381 1378 1375 1372
1453 1453 1454 1453 1453 1453 1454 1454 1454 1455 1455 1456 1457 1458 1459 1459 1460 1460 1458 1457 1455 1453 1450 1446 1443 1440 1436 1432 1428 1424 1420 1416 1412 1408 1405 1401 1397 1392 1388 1384 1380 1377 1374 1372
1451 1451 1451 1451 1451 1451 1450 1450 1450 1450 1451 1452 1453 1454 1455 1456 1456 1456 1454 1453 1451 1448 1446 1443 1440 1437 1433 1429 1426 1422 1418 1414 1411 1407 1403 1399 1395 1391 1387 1383 1379 1376 1373 1371
1450 1452 1451 1451 1450 1450 1449 1449 1448 1447 1448 1449 1449 1450 1451 1452 1452 1451 1450 1448 1446 1444 1442 1439 1437 1434 1431 1427 1423 1420 1416 1413 1409 1405 1402 1398 1394 1390 1386 1382 1379 1376 1373 1371
1455 1455 1455 1454 1452 1451 1450 1449 1448 1447 1448 1448 1448 1449 1448 1448 1447 1446 1446 1444 1443 1441 1438 1436 1434 1431 1428 1425 1421 1418 1415 1411 1408 1405 1401 1397 1394 1390 1386 1382 1379 1375 1373 1371
1457 1457 1457 1456 1455 1453 1452 1451 1450 1450 1449 1448 1447 1446 1446 1445 1443 1442 1441 1440 1438 1437 1435 1433 1431 1428 1425 1422 1419 1417 1414 1410 1407 1404 1401 1397 1394 1390 1386 1383 1379 1376 1373 1371
1461 1460 1459 1458 1457 1456 1454 1453 1452 1450 1449 1448 1446 1444 1442 1441 1439 1438 1436 1435 1434 1433 1431 1429 1427 1425 1422 1420 1417 1415 1412 1409 1406 1403 1400 1397 1394 1390 1387 1383 1380 1377 1374 1372
1463 1462 1460 1459 1457 1456 1455 1453 1451 1449 1447 1445 1443 1440 1438 1436 1434 1432 1431 1430 1429 1428 1427 1425 1423 1421 1419 1417 1415 1412 1410 1408 1406 1403 1400 1397 1394 1391 1388 1384 1381 1378 1376 1374
1465 1463 1461 1459 1457 1454 1452 1450 1448 1445 1442 1439 1437 1434 1432 1429 1428 1426 1425 1424 1424 1423 1422 1421 1420 1418 1416 1414 1412 1410 1408 1406 1404 1402 1400 1397 1394 1391 1388 1386 1383 1380 1378 1376
1465 1463 1460 1457 1455 1452 1449 1446 1443 1440 1437 1434 1431 1428 1425 1423 1421 1420 1419 1419 1418 1418 1418 1417 1416 1415 1413 1411 1410 1408 1407 1405 1403 1401 1399 1397 1395 1392 1390 1387 1385 1382 1380 1378
1463 1460 1457 1454 1451 1448 1445 1442 1439 1436 1433 1429 1426 1423 1420 1417 1415 1414 1414 1413 1413 1413 1413 1413 1412 1411 1410 1409 1407 1406 1405 1403 1402 1400 1399 1397 1395 1393 1391 1389 1387 1385 1383 1380
1459 1456 1453 1451 1448 1445 1442 1438 1435 1432 1429 1425 1422 1419 1416 1414 1411 1409 1408 1408 1408 1408 1408 1408 1408 1407 1406 1406 1405 1403 1402 1401 1400 1399 1398 1396 1395 1393 1392 1390 1388 1387 1385 1383
1455 1453 1450 1448 1445 1443 1440 1436 1433 1430 1426 1422 1419 1416 1413 1410 1407 1405 1403 1403 1403 1404 1404 1404 1404 1404 1403 1402 1402 1401 1400 1399 1399 1398 1397 1396 1395 1394 1393 1391 1390 1389 1387 1386
1451 1449 1447 1445 1442 1440 1437 1434 1431 1428 1424 1421 1417 1413 1410 1407 1404 1402 1400 1399 1399 1399 1400 1401 1401 1401 1400 1399 1399 1398 1397 1397 1397 1396 1395 1394 1394 1393 1393 1392 1391 1390 1389 1388